Starlink 32797

operational
NORAD ID: 62843 Int'l Des: 2025-019 Owner: SPXS Country: US Constellation: starlink
LEOCIRCULAR

About Starlink 32797

Description loading...

Live Position

Loading 3D Globe...

Upcoming Passes

Altitude History

Altitude vs Time

uPlot chart will show altitude changes over time

Two-Line Element Set

1 62843U 25019Q 25303.77951230 .00040032 00000-0 14580-2 0 9996
2 62843 43.0001 102.5716 0001721 283.7905 76.2755 15.27542656 42382
Epoch: Oct 30, 2025 • Age: 10 hours

Current Status

Altitude 484.4 km
Velocity 7.63 km/s
Sub-Earth Point 30.69°N, 34.84°E
Launch Date Jan 27, 2025
Age 0.7 years
Type internet

Technical Details

Classification Payload
Mass 730.00 kg
Dry Mass 700.00 kg
Total Mass 730.00 kg
Length 0.30 m
Diameter 4.10 m
Span 29.00 m
Shape Box + pan
Manufacturer SPXS
Bus Type Starlink V2M
Phase Status In Orbit
Owner/State SPXS/US

Large Constellations

Loading constellations...